• In Deutschland
  • Länderverzeichnis
  • Für 7 Tage
  • Wassertemperatur
  • Satellitenkarten
  • Wetterkarte
  • Widgets
  • user-avatar
    Anmelden

    Stündliche Wetter Freudenstadt

    Heute, 19 Oktober, Donnerstag

    Zeit Temperatur Niederschläge Wind Luftdruck Luftfeuchtigkeit
    00:00 +9°C° 0 mm 1 m/S 691 mmHg 68%
    01:00 +10°C° 0 mm 1 m/S 691 mmHg 69%
    02:00 +10°C° 0 mm 1 m/S 691 mmHg 68%
    03:00 +10°C° 0 mm 1 m/S 691 mmHg 67%
    04:00 +10°C° 0 mm 1 m/S 691 mmHg 66%
    05:00 +10°C° 0 mm 1 m/S 691 mmHg 65%
    06:00 +10°C° 0 mm 1 m/S 691 mmHg 64%
    07:00 +9°C° 0 mm 1 m/S 691 mmHg 63%
    08:00 +11°C° 0 mm 1 m/S 692 mmHg 60%
    09:00 +13°C° 0 mm 1 m/S 692 mmHg 57%
    10:00 +15°C° 0 mm 1 m/S 692 mmHg 54%
    11:00 +18°C° 0 mm 1 m/S 692 mmHg 50%
    12:00 +19°C° 0 mm 1 m/S 693 mmHg 45%
    13:00 +21°C° 0 mm 1 m/S 693 mmHg 41%
    14:00 +20°C° 0 mm 1 m/S 692 mmHg 45%
    15:00 +20°C° 0 mm 1 m/S 692 mmHg 49%
    16:00 +19°C° 0 mm 1 m/S 692 mmHg 53%
    17:00 +18°C° 0 mm 1 m/S 691 mmHg 56%
    18:00 +15°C° 0 mm 1 m/S 691 mmHg 60%
    19:00 +13°C° 0 mm 1 m/S 691 mmHg 64%
    20:00 +12°C° 0 mm 1 m/S 691 mmHg 66%
    21:00 +12°C° 0 mm 1 m/S 691 mmHg 68%
    22:00 +11°C° 0 mm 1 m/S 691 mmHg 70%
    23:00 +11°C° 0 mm 1 m/S 691 mmHg 69%

    Morgen, 20 Oktober, Freitag

    Zeit Temperatur Niederschläge Wind Luftdruck Luftfeuchtigkeit
    00:00 +11°C° 0 mm 1 m/S 691 mmHg 69%
    01:00 +11°C° 0 mm 1 m/S 691 mmHg 69%
    02:00 +11°C° 0 mm 1 m/S 691 mmHg 69%
    03:00 +11°C° 0 mm 1 m/S 691 mmHg 70%
    04:00 +11°C° 0 mm 1 m/S 691 mmHg 71%
    05:00 +10°C° 0 mm 2 m/S 692 mmHg 71%
    06:00 +10°C° 0 mm 2 m/S 692 mmHg 71%
    07:00 +10°C° 0 mm 2 m/S 692 mmHg 71%
    08:00 +12°C° 0 mm 2 m/S 692 mmHg 70%
    09:00 +13°C° 0 mm 2 m/S 693 mmHg 69%
    10:00 +14°C° 0 mm 2 m/S 693 mmHg 67%
    11:00 +14°C° 0,1 mm 2 m/S 694 mmHg 68%
    12:00 +13°C° 0,1 mm 3 m/S 694 mmHg 68%
    13:00 +14°C° 0,1 mm 3 m/S 694 mmHg 69%
    14:00 +13°C° 0 mm 3 m/S 694 mmHg 71%
    15:00 +13°C° 0 mm 3 m/S 694 mmHg 74%
    16:00 +13°C° 0 mm 3 m/S 694 mmHg 76%
    17:00 +13°C° 0 mm 2 m/S 694 mmHg 81%
    18:00 +12°C° 0 mm 2 m/S 694 mmHg 86%
    19:00 +9°C° 0 mm 2 m/S 694 mmHg 90%
    20:00 +9°C° 0 mm 2 m/S 694 mmHg 90%
    21:00 +9°C° 0 mm 2 m/S 694 mmHg 91%
    22:00 +9°C° 0 mm 2 m/S 694 mmHg 91%
    23:00 +9°C° 0 mm 2 m/S 694 mmHg 90%

    übermorgen, 21 Oktober, Samstag

    Zeit Temperatur Niederschläge Wind Luftdruck Luftfeuchtigkeit
    00:00 +9°C° 0 mm 2 m/S 694 mmHg 89%
    01:00 +9°C° 0 mm 2 m/S 694 mmHg 88%
    02:00 +9°C° 0 mm 2 m/S 693 mmHg 87%
    03:00 +9°C° 0 mm 2 m/S 693 mmHg 85%
    04:00 +9°C° 0 mm 2 m/S 693 mmHg 84%
    05:00 +9°C° 0 mm 2 m/S 693 mmHg 84%
    06:00 +9°C° 0 mm 2 m/S 693 mmHg 85%
    07:00 +9°C° 0 mm 2 m/S 693 mmHg 85%
    08:00 +10°C° 0 mm 3 m/S 693 mmHg 78%
    09:00 +12°C° 0 mm 3 m/S 694 mmHg 71%
    10:00 +14°C° 0 mm 4 m/S 694 mmHg 63%
    11:00 +15°C° 0 mm 4 m/S 694 mmHg 61%
    12:00 +17°C° 0 mm 4 m/S 694 mmHg 59%
    13:00 +18°C° 0 mm 4 m/S 694 mmHg 57%
    14:00 +17°C° 0,1 mm 4 m/S 694 mmHg 63%
    15:00 +16°C° 0,1 mm 3 m/S 694 mmHg 69%
    16:00 +13°C° 0,1 mm 3 m/S 693 mmHg 76%
    17:00 +12°C° 0,4 mm 3 m/S 693 mmHg 80%
    18:00 +11°C° 0,4 mm 3 m/S 694 mmHg 85%
    19:00 +10°C° 0,4 mm 3 m/S 694 mmHg 90%
    20:00 +9°C° 0,9 mm 3 m/S 694 mmHg 90%
    21:00 +8°C° 0,9 mm 3 m/S 694 mmHg 90%
    22:00 +8°C° 0,9 mm 3 m/S 695 mmHg 89%
    23:00 +7°C° 0,3 mm 3 m/S 695 mmHg 90%

    22 Oktober, Sonntag

    Zeit Temperatur Niederschläge Wind Luftdruck Luftfeuchtigkeit
    00:00 +7°C° 0,3 mm 3 m/S 695 mmHg 90%
    01:00 +7°C° 0,3 mm 3 m/S 695 mmHg 90%
    02:00 +7°C° 0 mm 3 m/S 695 mmHg 90%
    03:00 +5°C° 0 mm 3 m/S 694 mmHg 90%
    04:00 +5°C° 0 mm 3 m/S 694 mmHg 90%
    05:00 +5°C° 0 mm 3 m/S 694 mmHg 90%
    06:00 +4°C° 0 mm 3 m/S 694 mmHg 91%
    07:00 +4°C° 0 mm 3 m/S 694 mmHg 91%
    08:00 +5°C° 0 mm 3 m/S 694 mmHg 86%
    09:00 +5°C° 0 mm 4 m/S 695 mmHg 82%
    10:00 +6°C° 0 mm 4 m/S 695 mmHg 77%
    11:00 +7°C° 0,1 mm 4 m/S 695 mmHg 74%
    12:00 +7°C° 0,1 mm 4 m/S 695 mmHg 70%
    13:00 +7°C° 0,1 mm 4 m/S 695 mmHg 67%
    14:00 +7°C° 0,2 mm 4 m/S 695 mmHg 68%
    15:00 +7°C° 0,2 mm 4 m/S 695 mmHg 69%
    16:00 +7°C° 0,2 mm 4 m/S 695 mmHg 70%
    17:00 +7°C° 0,1 mm 3 m/S 695 mmHg 75%
    18:00 +5°C° 0,1 mm 3 m/S 695 mmHg 80%
    19:00 +4°C° 0,1 mm 3 m/S 695 mmHg 85%
    20:00 +3°C° 0,1 mm 3 m/S 696 mmHg 86%
    21:00 +3°C° 0,1 mm 3 m/S 696 mmHg 87%
    22:00 +3°C° 0,1 mm 3 m/S 696 mmHg 88%
    23:00 +3°C° 0,2 mm 3 m/S 696 mmHg 89%

    23 Oktober, Montag

    Zeit Temperatur Niederschläge Wind Luftdruck Luftfeuchtigkeit
    00:00 +3°C° 0,2 mm 3 m/S 696 mmHg 89%
    01:00 +3°C° 0,2 mm 3 m/S 696 mmHg 90%
    02:00 +3°C° 0,2 mm 3 m/S 696 mmHg 90%
    03:00 +3°C° 0,2 mm 3 m/S 697 mmHg 91%
    04:00 +3°C° 0,2 mm 3 m/S 697 mmHg 92%
    05:00 +3°C° 0,1 mm 3 m/S 697 mmHg 92%
    06:00 +3°C° 0,1 mm 3 m/S 697 mmHg 92%
    07:00 +3°C° 0,1 mm 3 m/S 698 mmHg 92%
    08:00 +4°C° 0,1 mm 3 m/S 698 mmHg 90%
    09:00 +4°C° 0,1 mm 3 m/S 699 mmHg 88%
    10:00 +5°C° 0,1 mm 3 m/S 699 mmHg 86%
    11:00 +7°C° 0 mm 3 m/S 699 mmHg 83%
    12:00 +7°C° 0 mm 3 m/S 700 mmHg 80%
    13:00 +8°C° 0 mm 3 m/S 700 mmHg 77%
    14:00 +8°C° 0 mm 3 m/S 700 mmHg 78%
    15:00 +8°C° 0 mm 3 m/S 700 mmHg 78%
    16:00 +8°C° 0 mm 2 m/S 700 mmHg 79%
    17:00 +7°C° 0,1 mm 2 m/S 700 mmHg 82%
    18:00 +7°C° 0,1 mm 2 m/S 700 mmHg 85%
    19:00 +6°C° 0,1 mm 2 m/S 700 mmHg 88%
    20:00 +6°C° 0,1 mm 2 m/S 700 mmHg 88%
    21:00 +6°C° 0,1 mm 2 m/S 700 mmHg 88%
    22:00 +6°C° 0,1 mm 2 m/S 700 mmHg 88%
    23:00 +6°C° 0,1 mm 2 m/S 700 mmHg 89%

    24 Oktober, Dienstag

    Zeit Temperatur Niederschläge Wind Luftdruck Luftfeuchtigkeit
    00:00 +6°C° 0,1 mm 2 m/S 700 mmHg 89%
    01:00 +6°C° 0,1 mm 2 m/S 700 mmHg 89%
    02:00 +6°C° 0,1 mm 2 m/S 700 mmHg 89%
    03:00 +6°C° 0,1 mm 2 m/S 700 mmHg 90%
    04:00 +6°C° 0,1 mm 2 m/S 700 mmHg 90%
    05:00 +7°C° 0,1 mm 1 m/S 700 mmHg 90%
    06:00 +7°C° 0,1 mm 1 m/S 700 mmHg 90%
    07:00 +7°C° 0,1 mm 1 m/S 700 mmHg 91%
    08:00 +8°C° 0 mm 1 m/S 700 mmHg 88%
    09:00 +9°C° 0 mm 1 m/S 700 mmHg 86%
    10:00 +10°C° 0 mm 1 m/S 701 mmHg 84%
    11:00 +11°C° 0 mm 1 m/S 701 mmHg 80%
    12:00 +12°C° 0 mm 1 m/S 701 mmHg 76%
    13:00 +14°C° 0 mm 1 m/S 701 mmHg 72%
    14:00 +13°C° 0 mm 1 m/S 701 mmHg 74%
    15:00 +13°C° 0 mm 1 m/S 701 mmHg 76%
    16:00 +13°C° 0 mm 1 m/S 700 mmHg 78%
    17:00 +11°C° 0 mm 1 m/S 700 mmHg 83%
    18:00 +10°C° 0 mm 1 m/S 700 mmHg 88%
    19:00 +9°C° 0 mm 1 m/S 700 mmHg 93%
    20:00 +8°C° 0 mm 1 m/S 700 mmHg 94%
    21:00 +8°C° 0 mm 1 m/S 700 mmHg 94%
    22:00 +7°C° 0 mm 1 m/S 700 mmHg 94%
    23:00 +7°C° 0 mm 1 m/S 700 mmHg 94%
    Mehr zeigen